Time,TemperatureF,DewpointF,PressureIn,WindDirection,WindDirectionDegrees,WindSpeedMPH,WindSpeedGustMPH,Humidity,HourlyPrecipIn,Conditions,Clouds,dailyrainin,SoftwareType,DateUTC
2013-02-01 00:04:00,17.9,16.0,30.25,NE,40,1.0,6.0,90,0.00,,,0.02,weatherlink.com 1.10,2013-02-01 07:04:00,
2013-02-01 00:18:00,17.7,15.0,30.25,NE,40,4.0,4.0,90,0.00,,,0.02,weatherlink.com 1.10,2013-02-01 07:18:00,
2013-02-01 00:33:00,18.0,16.0,30.25,NE,40,1.0,6.0,90,0.00,,,0.02,weatherlink.com 1.10,2013-02-01 07:33:00,
2013-02-01 00:48:00,18.3,16.0,30.25,NE,40,5.0,5.0,90,0.00,,,0.02,weatherlink.com 1.10,2013-02-01 07:48:00,
2013-02-01 01:04:00,17.6,15.0,30.23,NE,40,3.0,5.0,89,0.00,,,0.02,weatherlink.com 1.10,2013-02-01 08:04:00,
2013-02-01 01:19:00,17.7,15.0,30.23,NE,40,5.0,6.0,90,0.00,,,0.02,weatherlink.com 1.10,2013-02-01 08:19:00,
2013-02-01 01:34:00,17.8,15.0,30.23,NE,40,0.0,3.0,89,0.00,,,0.02,weatherlink.com 1.10,2013-02-01 08:34:00,
2013-02-01 01:49:00,18.0,16.0,30.23,NE,40,1.0,4.0,90,0.00,,,0.02,weatherlink.com 1.10,2013-02-01 08:49:00,
2013-02-01 02:03:00,18.1,15.0,30.23,NE,40,2.0,5.0,89,0.00,,,0.02,weatherlink.com 1.10,2013-02-01 09:03:00,
2013-02-01 02:19:00,18.4,16.0,30.23,NE,40,2.0,5.0,90,0.00,,,0.02,weatherlink.com 1.10,2013-02-01 09:19:00,
2013-02-01 02:34:00,18.5,16.0,30.23,NE,40,0.0,3.0,89,0.00,,,0.02,weatherlink.com 1.10,2013-02-01 09:34:00,
2013-02-01 02:49:00,18.5,16.0,30.23,NE,40,1.0,6.0,89,0.00,,,0.02,weatherlink.com 1.10,2013-02-01 09:49:00,
2013-02-01 03:04:00,18.1,15.0,30.23,NE,40,5.0,6.0,89,0.00,,,0.02,weatherlink.com 1.10,2013-02-01 10:04:00,
2013-02-01 03:18:00,19.3,17.0,30.23,NE,40,2.0,10.0,90,0.00,,,0.02,weatherlink.com 1.10,2013-02-01 10:18:00,
2013-02-01 03:34:00,19.9,17.0,30.23,NE,40,0.0,5.0,89,0.00,,,0.02,weatherlink.com 1.10,2013-02-01 10:34:00,
2013-02-01 03:49:00,19.8,17.0,30.23,NE,40,4.0,7.0,88,0.00,,,0.02,weatherlink.com 1.10,2013-02-01 10:49:00,
2013-02-01 04:04:00,20.6,18.0,30.22,NE,40,2.0,7.0,89,0.00,,,0.02,weatherlink.com 1.10,2013-02-01 11:04:00,
2013-02-01 04:19:00,21.5,19.0,30.22,NE,40,3.0,5.0,88,0.00,,,0.02,weatherlink.com 1.10,2013-02-01 11:19:00,
2013-02-01 04:34:00,22.7,19.0,30.21,NE,40,0.0,4.0,86,0.00,,,0.00,weatherlink.com 1.10,2013-02-01 11:34:00,
2013-02-01 04:49:00,22.9,19.0,30.22,NE,40,0.0,4.0,86,0.00,,,0.00,weatherlink.com 1.10,2013-02-01 11:49:00,
2013-02-01 05:04:00,23.9,20.0,30.22,NE,40,0.0,1.0,84,0.00,,,0.00,weatherlink.com 1.10,2013-02-01 12:04:00,
2013-02-01 05:19:00,23.0,19.0,30.22,NE,40,2.0,2.0,85,0.00,,,0.00,weatherlink.com 1.10,2013-02-01 12:19:00,
2013-02-01 05:34:00,22.3,19.0,30.21,NE,40,2.0,3.0,85,0.00,,,0.00,weatherlink.com 1.10,2013-02-01 12:34:00,
2013-02-01 05:49:00,22.3,19.0,30.22,NE,40,0.0,1.0,87,0.00,,,0.00,weatherlink.com 1.10,2013-02-01 12:49:00,
2013-02-01 06:04:00,21.8,18.0,30.22,NE,40,2.0,6.0,86,0.00,,,0.00,weatherlink.com 1.10,2013-02-01 13:04:00,
2013-02-01 06:19:00,21.6,18.0,30.22,NE,40,0.0,4.0,87,0.00,,,0.00,weatherlink.com 1.10,2013-02-01 13:19:00,
2013-02-01 06:34:00,21.6,18.0,30.22,NE,40,3.0,3.0,87,0.00,,,0.00,weatherlink.com 1.10,2013-02-01 13:34:00,
2013-02-01 06:49:00,21.6,19.0,30.23,NE,40,3.0,3.0,88,0.00,,,0.00,weatherlink.com 1.10,2013-02-01 13:49:00,
2013-02-01 07:04:00,21.4,18.0,30.22,NE,40,1.0,4.0,88,0.00,,,0.00,weatherlink.com 1.10,2013-02-01 14:04:00,
2013-02-01 07:19:00,21.3,18.0,30.23,NE,40,0.0,3.0,88,0.00,,,0.00,weatherlink.com 1.10,2013-02-01 14:19:00,
2013-02-01 07:34:00,22.0,19.0,30.23,NE,40,0.0,3.0,89,0.00,,,0.00,weatherlink.com 1.10,2013-02-01 14:34:00,
2013-02-01 07:49:00,22.9,20.0,30.23,NE,40,2.0,3.0,87,0.00,,,0.00,weatherlink.com 1.10,2013-02-01 14:49:00,
2013-02-01 08:04:00,22.8,20.0,30.24,NE,40,3.0,4.0,87,0.00,,,0.00,weatherlink.com 1.10,2013-02-01 15:04:00,
2013-02-01 08:19:00,23.0,20.0,30.24,NE,40,0.0,2.0,87,0.00,,,0.00,weatherlink.com 1.10,2013-02-01 15:19:00,
2013-02-01 08:34:00,23.7,21.0,30.25,NE,40,3.0,5.0,88,0.00,,,0.00,weatherlink.com 1.10,2013-02-01 15:34:00,
2013-02-01 08:49:00,24.7,21.0,30.26,NE,40,1.0,3.0,87,0.00,,,0.00,weatherlink.com 1.10,2013-02-01 15:49:00,
2013-02-01 09:05:00,25.5,22.0,30.26,NE,40,3.0,4.0,85,0.00,,,0.00,weatherlink.com 1.10,2013-02-01 16:05:00,
2013-02-01 09:19:00,26.3,22.0,30.26,NE,40,0.0,5.0,84,0.00,,,0.00,weatherlink.com 1.10,2013-02-01 16:19:00,
2013-02-01 09:34:00,27.2,23.0,30.25,NE,40,3.0,5.0,83,0.00,,,0.00,weatherlink.com 1.10,2013-02-01 16:34:00,
2013-02-01 09:49:00,28.2,23.0,30.25,NE,40,2.0,4.0,82,0.00,,,0.00,weatherlink.com 1.10,2013-02-01 16:49:00,
2013-02-01 10:05:00,29.3,24.0,30.25,NE,40,0.0,2.0,79,0.00,,,0.00,weatherlink.com 1.10,2013-02-01 17:05:00,
2013-02-01 10:19:00,30.4,24.0,30.26,NE,40,2.0,3.0,78,0.00,,,0.00,weatherlink.com 1.10,2013-02-01 17:19:00,
2013-02-01 10:35:00,30.1,24.0,30.26,NE,40,4.0,6.0,78,0.00,,,0.00,weatherlink.com 1.10,2013-02-01 17:35:00,
2013-02-01 10:50:00,29.5,24.0,30.27,NE,40,2.0,6.0,80,0.00,,,0.00,weatherlink.com 1.10,2013-02-01 17:50:00,
2013-02-01 11:05:00,30.8,25.0,30.28,NE,40,7.0,8.0,79,0.00,,,0.00,weatherlink.com 1.10,2013-02-01 18:05:00,
2013-02-01 11:20:00,29.8,23.0,30.28,NE,40,5.0,6.0,77,0.00,,,0.00,weatherlink.com 1.10,2013-02-01 18:20:00,
2013-02-01 11:35:00,28.7,23.0,30.29,NE,40,0.0,4.0,78,0.00,,,0.00,weatherlink.com 1.10,2013-02-01 18:35:00,
2013-02-01 11:50:00,30.4,24.0,30.29,NE,40,4.0,4.0,78,0.00,,,0.00,weatherlink.com 1.10,2013-02-01 18:50:00,
2013-02-01 12:05:00,32.0,25.0,30.28,SE,145,5.0,10.0,74,0.00,,,0.00,weatherlink.com 1.10,2013-02-01 19:05:00,
2013-02-01 12:20:00,34.1,26.0,30.28,SE,145,2.0,6.0,72,0.00,,,0.00,weatherlink.com 1.10,2013-02-01 19:20:00,
2013-02-01 12:35:00,35.0,25.0,30.27,SE,145,0.0,6.0,68,0.00,,,0.00,weatherlink.com 1.10,2013-02-01 19:35:00,
2013-02-01 12:50:00,37.2,26.0,30.27,SE,145,0.0,2.0,65,0.00,,,0.00,weatherlink.com 1.10,2013-02-01 19:50:00,
2013-02-01 13:05:00,39.6,26.0,30.27,SE,145,1.0,3.0,59,0.00,,,0.00,weatherlink.com 1.10,2013-02-01 20:05:00,
2013-02-01 13:20:00,40.0,27.0,30.27,SE,145,1.0,2.0,59,0.00,,,0.00,weatherlink.com 1.10,2013-02-01 20:20:00,
2013-02-01 13:35:00,41.0,27.0,30.27,SE,145,1.0,4.0,57,0.00,,,0.00,weatherlink.com 1.10,2013-02-01 20:35:00,
2013-02-01 13:50:00,40.9,27.0,30.27,SE,145,2.0,4.0,58,0.00,,,0.00,weatherlink.com 1.10,2013-02-01 20:50:00,
2013-02-01 14:05:00,42.0,27.0,30.26,SE,145,1.0,2.0,56,0.00,,,0.00,weatherlink.com 1.10,2013-02-01 21:05:00,
2013-02-01 14:20:00,42.4,28.0,30.26,SE,145,3.0,5.0,56,0.00,,,0.00,weatherlink.com 1.10,2013-02-01 21:20:00,
2013-02-01 14:35:00,42.2,28.0,30.25,SE,145,1.0,5.0,58,0.00,,,0.00,weatherlink.com 1.10,2013-02-01 21:35:00,
2013-02-01 14:50:00,42.0,27.0,30.25,SE,145,5.0,6.0,56,0.00,,,0.00,weatherlink.com 1.10,2013-02-01 21:50:00,
2013-02-01 15:05:00,42.2,27.0,30.25,SE,145,6.0,7.0,55,0.00,,,0.00,weatherlink.com 1.10,2013-02-01 22:05:00,
2013-02-01 15:20:00,42.5,28.0,30.27,SE,140,7.0,8.0,57,0.00,,,0.00,weatherlink.com 1.10,2013-02-01 22:20:00,
2013-02-01 15:35:00,41.7,28.0,30.27,NE,38,8.0,9.0,59,0.00,,,0.00,weatherlink.com 1.10,2013-02-01 22:35:00,
2013-02-01 15:51:00,40.5,28.0,30.26,NE,38,4.0,9.0,62,0.00,,,0.00,weatherlink.com 1.10,2013-02-01 22:51:00,
2013-02-01 16:06:00,40.5,28.0,30.26,NE,38,2.0,7.0,62,0.00,,,0.00,weatherlink.com 1.10,2013-02-01 23:06:00,
2013-02-01 16:20:00,40.9,28.0,30.26,NE,38,5.0,5.0,60,0.00,,,0.00,weatherlink.com 1.10,2013-02-01 23:20:00,
2013-02-01 16:36:00,41.2,28.0,30.26,NE,38,4.0,5.0,60,0.00,,,0.00,weatherlink.com 1.10,2013-02-01 23:36:00,
2013-02-01 16:50:00,39.8,28.0,30.26,NE,38,2.0,4.0,62,0.00,,,0.00,weatherlink.com 1.10,2013-02-01 23:50:00,
2013-02-01 17:05:00,39.5,27.0,30.25,NE,38,3.0,7.0,61,0.00,,,0.00,weatherlink.com 1.10,2013-02-02 00:05:00,
2013-02-01 17:21:00,38.1,26.0,30.25,NE,38,8.0,9.0,62,0.00,,,0.00,weatherlink.com 1.10,2013-02-02 00:21:00,
2013-02-01 17:36:00,37.3,26.0,30.25,NE,38,4.0,7.0,63,0.00,,,0.00,weatherlink.com 1.10,2013-02-02 00:36:00,
2013-02-01 17:50:00,37.4,25.0,30.25,NE,38,0.0,6.0,62,0.00,,,0.00,weatherlink.com 1.10,2013-02-02 00:50:00,
2013-02-01 18:05:00,34.9,25.0,30.25,NE,35,3.0,6.0,67,0.00,,,0.00,weatherlink.com 1.10,2013-02-02 01:05:00,
2013-02-01 18:20:00,35.1,25.0,30.26,NNE,27,6.0,9.0,67,0.00,,,0.00,weatherlink.com 1.10,2013-02-02 01:20:00,
2013-02-01 18:35:00,35.0,25.0,30.26,NNE,27,2.0,9.0,66,0.00,,,0.00,weatherlink.com 1.10,2013-02-02 01:35:00,
2013-02-01 18:51:00,33.7,25.0,30.27,NNE,27,0.0,9.0,69,0.00,,,0.00,weatherlink.com 1.10,2013-02-02 01:51:00,
2013-02-01 19:05:00,32.9,25.0,30.29,NNE,24,11.0,12.0,73,0.00,,,0.00,weatherlink.com 1.10,2013-02-02 02:05:00,
2013-02-01 19:20:00,31.6,24.0,30.30,North,360,7.0,11.0,74,0.00,,,0.00,weatherlink.com 1.10,2013-02-02 02:20:00,
2013-02-01 19:35:00,30.8,24.0,30.31,North,360,3.0,9.0,75,0.00,,,0.00,weatherlink.com 1.10,2013-02-02 02:35:00,
2013-02-01 19:50:00,30.3,23.0,30.32,North,360,1.0,3.0,74,0.00,,,0.00,weatherlink.com 1.10,2013-02-02 02:50:00,
2013-02-01 20:05:00,29.7,23.0,30.33,North,360,1.0,3.0,75,0.00,,,0.00,weatherlink.com 1.10,2013-02-02 03:05:00,
2013-02-01 20:20:00,29.4,23.0,30.33,North,360,3.0,3.0,77,0.00,,,0.00,weatherlink.com 1.10,2013-02-02 03:20:00,
2013-02-01 20:36:00,28.9,23.0,30.34,North,360,4.0,5.0,78,0.00,,,0.00,weatherlink.com 1.10,2013-02-02 03:36:00,
2013-02-01 20:51:00,27.7,22.0,30.34,North,360,0.0,6.0,78,0.00,,,0.00,weatherlink.com 1.10,2013-02-02 03:51:00,
2013-02-01 21:06:00,26.7,22.0,30.35,North,360,0.0,7.0,81,0.00,,,0.00,weatherlink.com 1.10,2013-02-02 04:06:00,
2013-02-01 21:21:00,27.5,22.0,30.36,North,360,0.0,5.0,81,0.00,,,0.00,weatherlink.com 1.10,2013-02-02 04:21:00,
2013-02-01 21:36:00,26.6,21.0,30.36,North,360,1.0,3.0,80,0.00,,,0.00,weatherlink.com 1.10,2013-02-02 04:36:00,
2013-02-01 21:51:00,25.2,20.0,30.36,North,360,2.0,6.0,81,0.00,,,0.00,weatherlink.com 1.10,2013-02-02 04:51:00,
2013-02-01 22:06:00,24.4,21.0,30.36,North,360,3.0,4.0,85,0.00,,,0.00,weatherlink.com 1.10,2013-02-02 05:06:00,
2013-02-01 22:21:00,25.2,20.0,30.38,North,360,0.0,3.0,82,0.00,,,0.00,weatherlink.com 1.10,2013-02-02 05:21:00,
2013-02-01 22:36:00,24.3,20.0,30.38,North,360,0.0,2.0,83,0.00,,,0.00,weatherlink.com 1.10,2013-02-02 05:36:00,
2013-02-01 22:51:00,23.5,19.0,30.39,North,360,4.0,5.0,84,0.00,,,0.00,weatherlink.com 1.10,2013-02-02 05:51:00,
2013-02-01 23:06:00,23.7,20.0,30.39,North,360,3.0,4.0,84,0.00,,,0.00,weatherlink.com 1.10,2013-02-02 06:06:00,
2013-02-01 23:21:00,24.4,20.0,30.39,North,360,2.0,5.0,84,0.00,,,0.00,weatherlink.com 1.10,2013-02-02 06:21:00,
2013-02-01 23:36:00,23.2,19.0,30.39,North,360,6.0,7.0,85,0.00,,,0.00,weatherlink.com 1.10,2013-02-02 06:36:00,
2013-02-01 23:51:00,21.4,17.0,30.39,North,360,1.0,5.0,84,0.00,,,0.00,weatherlink.com 1.10,2013-02-02 06:51:00,